GW0378 Weather Reports


time (UTC)temp
C
wind
direction
speed
KPH
gust
KPH
rain 1hr
cm
rain 24hr
cm
rain mn
cm
humidity
%
barometer
mb
20260505101803 6 166 3.2 3.2 0.00 0.00 0.00 53 1015.4
20260505101258 6 15 0.0 4.8 0.00 0.00 0.00 52 1015.7
20260505100755 6 63 0.0 3.2 0.00 0.00 0.00 53 1015.6
20260505100251 5 135 3.2 3.2 0.00 0.00 0.00 54 1015.5
20260505095747 5 157 3.2 3.2 0.00 0.00 0.00 54 1015.2
20260505095245 5 166 3.2 4.8 0.00 0.00 0.00 55 1015.7
20260505094740 5 111 1.6 3.2 0.00 0.00 0.00 53 1015.7
20260505094237 5 61 3.2 4.8 0.00 0.00 0.00 54 1015.5
20260505093733 5 114 1.6 4.8 0.00 0.00 0.00 54 1015.2
20260505093231 5 90 1.6 3.2 0.00 0.00 0.00 54 1015.2
20260505092728 5 60 3.2 4.8 0.00 0.00 0.00 54 1015.7
20260505092227 6 94 4.8 4.8 0.00 0.00 0.00 54 1015.5
20260505091723 6 105 3.2 4.8 0.00 0.00 0.00 53 1015.2
20260505091221 6 94 4.8 4.8 0.00 0.00 0.00 53 1015.4
20260505090719 6 117 3.2 4.8 0.00 0.00 0.00 52 1015.5
20260505090217 6 94 3.2 6.4 0.00 0.00 0.00 51 1015.6
20260505085714 6 115 4.8 6.4 0.00 0.00 0.00 53 1015.4
20260505085212 6 135 0.0 0.0 0.00 0.00 0.00 52 1015.5
20260505084709 6 145 0.0 3.2 0.00 0.00 0.00 52 1015.6
20260505084208 6 108 4.8 4.8 0.00 0.00 0.00 54 1015.5
20260505083704 7 105 3.2 4.8 0.00 0.00 0.00 54 1015.2
20260505083201 7 81 3.2 4.8 0.00 0.00 0.00 54 1015.6
20260505082657 7 98 0.0 3.2 0.00 0.00 0.00 53 1015.4
20260505082155 7 114 1.6 4.8 0.00 0.00 0.00 51 1015.5
20260505081650 8 90 0.0 4.8 0.00 0.00 0.00 49 1015.5
20260505081148 7 87 4.8 8.0 0.00 0.00 0.00 50 1015.4
20260505080645 7 180 3.2 3.2 0.00 0.00 0.00 50 1015.2
20260505080141 8 105 6.4 8.0 0.00 0.00 0.00 52 1015.6
20260505075637 8 93 4.8 12.9 0.00 0.00 0.00 48 1015.7
20260505075133 7 102 6.4 6.4 0.00 0.00 0.00 47 1015.6
20260505074630 8 291 1.6 1.6 0.00 0.00 0.00 47 1015.7
20260505074127 8 254 4.8 4.8 0.00 0.00 0.00 46 1015.6
20260505073625 8 346 3.2 6.4 0.00 0.00 0.00 45 1015.8
20260505073123 8 81 0.0 3.2 0.00 0.00 0.00 46 1015.4
20260505072619 8 78 1.6 3.2 0.00 0.00 0.00 47 1015.4
20260505072116 8 33 8.0 8.0 0.00 0.00 0.00 46 1015.4
20260505071611 9 65 6.4 11.3 0.00 0.00 0.00 45 1015.2
20260505071109 9 113 3.2 17.7 0.00 0.00 0.00 44 1015.2
20260505070606 9 162 1.6 12.9 0.00 0.00 0.00 45 1015.5
20260505065558 9 99 3.2 14.5 0.00 0.00 0.00 45 1015.2
20260505065055 9 155 8.0 20.9 0.00 0.00 0.00 45 1015.4
20260505064551 9 125 6.4 17.7 0.00 0.00 0.00 45 1015.4
20260505064050 9 110 12.9 17.7 0.00 0.00 0.00 45 1015.5
20260505063547 9 165 0.0 19.3 0.00 0.00 0.00 46 1015.1
20260505063043 9 115 3.2 11.3 0.00 0.00 0.00 46 1015.2
20260505062540 9 15 3.2 8.0 0.00 0.00 0.00 47 1015.1
20260505062037 9 104 6.4 12.9 0.00 0.00 0.00 47 1015.1
20260505061534 10 85 12.9 20.9 0.00 0.00 0.00 45 1014.9
20260505061032 10 109 11.3 33.8 0.00 0.00 0.00 46 1015.0
20260505060529 10 331 4.8 12.9 0.00 0.00 0.00 47 1014.8
20260505060026 10 125 22.5 30.6 0.00 0.00 0.00 46 1015.0
20260505055521 10 117 14.5 40.2 0.00 0.00 0.00 46 1014.6
20260505055018 10 129 12.9 27.4 0.00 0.00 0.00 45 1014.6
20260505054516 10 122 16.1 27.4 0.00 0.00 0.00 46 1014.5
20260505054014 10 102 20.9 38.6 0.00 0.00 0.00 46 1014.4
20260505053511 10 128 17.7 33.8 0.00 0.00 0.00 46 1014.4
20260505053007 10 132 27.4 33.8 0.00 0.00 0.00 46 1014.1
20260505052505 10 110 16.1 41.8 0.00 0.00 0.00 47 1013.8
20260505052002 10 123 20.9 33.8 0.00 0.00 0.00 46 1014.2
20260505051458 11 94 17.7 43.5 0.00 0.00 0.00 46 1014.1
20260505050957 11 116 27.4 32.2 0.00 0.00 0.00 46 1014.2
20260505050454 11 79 12.9 38.6 0.00 0.00 0.00 46 1014.1
20260505041422 11 95 8.0 29.0 0.00 0.00 0.00 48 1014.0
20260505040919 11 85 17.7 33.8 0.00 0.00 0.00 48 1013.7
20260505040417 12 110 9.7 38.6 0.00 0.00 0.00 47 1013.8
20260505035913 12 85 9.7 30.6 0.00 0.00 0.00 48 1013.7
20260505035409 12 116 41.8 41.8 0.00 0.00 0.00 47 1013.5
20260505034907 12 110 17.7 41.8 0.00 0.00 0.00 47 1013.5
20260505034403 12 127 32.2 32.2 0.00 0.00 0.00 47 1013.5
20260505033900 12 160 9.7 37.0 0.00 0.00 0.00 46 1013.6
20260505033357 12 136 16.1 32.2 0.00 0.00 0.00 46 1013.7
20260505032855 12 90 17.7 33.8 0.00 0.00 0.00 46 1013.5
20260505032351 12 101 29.0 35.4 0.00 0.00 0.00 46 1013.2
20260505031848 12 100 12.9 29.0 0.00 0.00 0.00 46 1013.2
20260505031345 12 97 16.1 30.6 0.00 0.00 0.00 46 1013.1
20260505030843 12 122 8.0 33.8 0.00 0.00 0.00 45 1013.1
20260505030338 12 114 22.5 30.6 0.00 0.00 0.00 45 1012.8
20260505025834 13 113 12.9 38.6 0.00 0.00 0.00 45 1013.0
20260505025332 13 97 22.5 37.0 0.00 0.00 0.00 45 1012.9
20260505024830 13 127 9.7 27.4 0.00 0.00 0.00 45 1013.1
20260505024327 13 114 25.7 25.7 0.00 0.00 0.00 44 1012.9
20260505023824 13 106 9.7 19.3 0.00 0.00 0.00 44 1012.9
20260505023321 13 85 8.0 24.1 0.00 0.00 0.00 45 1012.8
20260505022819 13 158 8.0 12.9 0.00 0.00 0.00 44 1012.7
20260505022315 13 96 12.9 19.3 0.00 0.00 0.00 44 1012.5
20260505021813 14 105 14.5 20.9 0.00 0.00 0.00 43 1012.5
20260505021309 14 51 9.7 32.2 0.00 0.00 0.00 43 1012.4
20260505020804 14 110 12.9 35.4 0.00 0.00 0.00 42 1012.5
20260505020301 14 81 11.3 30.6 0.00 0.00 0.00 42 1012.0
20260505015758 15 76 8.0 16.1 0.00 0.00 0.00 42 1012.1
20260505015255 15 112 9.7 16.1 0.00 0.00 0.00 41 1012.1
20260505014752 15 84 14.5 25.7 0.00 0.00 0.00 41 1012.0
20260505014249 15 82 8.0 29.0 0.00 0.00 0.00 40 1012.3
20260505013745 15 83 9.7 24.1 0.00 0.00 0.00 40 1012.3
20260505013243 15 63 8.0 12.9 0.00 0.00 0.00 40 1011.9
20260505012741 15 94 8.0 22.5 0.00 0.00 0.00 39 1011.8
20260505012238 16 81 6.4 25.7 0.00 0.00 0.00 39 1012.0
20260505011733 16 99 12.9 32.2 0.00 0.00 0.00 38 1011.8
20260505011231 16 105 8.0 11.3 0.00 0.00 0.00 38 1011.8
20260505010726 16 109 17.7 24.1 0.00 0.00 0.00 38 1011.7
20260505010223 16 50 4.8 14.5 0.00 0.00 0.00 39 1011.7
20260505005719 17 22 9.7 14.5 0.00 0.00 0.00 39 1011.8
20260505005216 16 83 16.1 19.3 0.00 0.00 0.00 38 1011.8
20260505004714 16 96 8.0 17.7 0.00 0.00 0.00 40 1011.8
20260505004210 16 56 3.2 9.7 0.00 0.00 0.00 39 1011.9
20260505003707 16 102 8.0 20.9 0.00 0.00 0.00 39 1011.9
20260505003205 16 45 8.0 16.1 0.00 0.00 0.00 39 1011.8
20260505002701 17 46 8.0 19.3 0.00 0.00 0.00 39 1011.9
20260505002159 17 103 4.8 14.5 0.00 0.00 0.00 38 1011.8
20260505001656 17 93 4.8 17.7 0.00 0.00 0.00 39 1011.6
20260505001153 18 59 3.2 14.5 0.00 0.00 0.00 38 1011.7
20260505000650 18 56 3.2 14.5 0.00 0.00 0.00 38 1011.6
20260505000148 18 60 9.7 22.5 0.00 0.00 0.00 38 1011.6
20260504235644 18 29 6.4 14.5 0.00 0.00 0.00 36 1011.6
20260504235141 18 357 3.2 22.5 0.00 0.00 0.00 37 1011.5
20260504234638 18 26 1.6 8.0 0.00 0.00 0.00 38 1011.3
20260504234136 18 52 8.0 16.1 0.00 0.00 0.00 37 1011.4
20260504233631 18 80 3.2 11.3 0.00 0.00 0.00 39 1011.4
20260504233127 18 67 8.0 14.5 0.00 0.00 0.00 38 1011.4
20260504232625 18 81 6.4 16.1 0.00 0.00 0.00 39 1011.6
20260504232122 18 64 8.0 12.9 0.00 0.00 0.00 38 1011.5
20260504231618 18 51 12.9 17.7 0.00 0.00 0.00 37 1011.4
20260504231115 18 45 3.2 14.5 0.00 0.00 0.00 38 1011.5
20260504230611 18 10 4.8 11.3 0.00 0.00 0.00 38 1011.3
20260504230110 18 80 16.1 19.3 0.00 0.00 0.00 37 1011.3
20260504225608 19 41 8.0 19.3 0.00 0.00 0.00 37 1011.4
20260504225104 18 0 3.2 12.9 0.00 0.00 0.00 37 1011.4
20260504224600 18 96 9.7 16.1 0.00 0.00 0.00 36 1011.4
20260504224058 19 8 6.4 19.3 0.00 0.00 0.00 38 1011.4
20260504223555 19 50 11.3 14.5 0.00 0.00 0.00 37 1011.6
20260504223050 18 84 4.8 22.5 0.00 0.00 0.00 37 1011.5
20260504222547 18 102 12.9 14.5 0.00 0.00 0.00 36 1011.5
20260504222044 18 85 6.4 27.4 0.00 0.00 0.00 37 1011.7
20260504221542 19 21 6.4 19.3 0.00 0.00 0.00 37 1011.5
20260504221038 19 109 4.8 16.1 0.00 0.00 0.00 36 1011.5
20260504220535 19 108 11.3 16.1 0.00 0.00 0.00 36 1011.6
20260504220032 19 123 12.9 17.7 0.00 0.00 0.00 36 1011.4
20260504215528 20 346 4.8 12.9 0.00 0.00 0.00 36 1011.4
20260504215026 18 23 8.0 11.3 0.00 0.00 0.00 37 1011.6
20260504214522 19 67 8.0 12.9 0.00 0.00 0.00 36 1011.7
20260504214018 19 35 4.8 16.1 0.00 0.00 0.00 38 1011.8
20260504213515 20 84 4.8 11.3 0.00 0.00 0.00 37 1011.7
20260504213012 19 97 12.9 19.3 0.00 0.00 0.00 36 1011.8
20260504212508 19 60 4.8 20.9 0.00 0.00 0.00 38 1011.6
20260504212005 19 90 3.2 20.9 0.00 0.00 0.00 38 1011.8
20260504211502 18 61 4.8 24.1 0.00 0.00 0.00 38 1011.8
20260504210959 19 43 6.4 12.9 0.00 0.00 0.00 38 1011.8
20260504210456 20 12 3.2 11.3 0.00 0.00 0.00 38 1011.8
20260504205953 20 92 9.7 16.1 0.00 0.00 0.00 35 1011.9
20260504205450 20 64 8.0 8.0 0.00 0.00 0.00 37 1011.8
20260504204949 19 62 17.7 17.7 0.00 0.00 0.00 36 1011.8
20260504204446 18 45 12.9 16.1 0.00 0.00 0.00 38 1011.7
20260504203945 18 76 8.0 35.4 0.00 0.00 0.00 38 1012.3
20260504203443 18 63 6.4 11.3 0.00 0.00 0.00 39 1011.9
20260504202938 18 35 1.6 11.3 0.00 0.00 0.00 38 1012.0
20260504202435 18 70 4.8 16.1 0.00 0.00 0.00 38 1012.3
20260504201932 19 53 6.4 8.0 0.00 0.00 0.00 39 1012.1
20260504201429 19 120 9.7 12.9 0.00 0.00 0.00 38 1012.3
20260504200927 18 123 6.4 24.1 0.00 0.00 0.00 38 1012.1
20260504200423 18 60 8.0 9.7 0.00 0.00 0.00 40 1012.1
20260504195920 17 14 4.8 16.1 0.00 0.00 0.00 38 1012.0
20260504195416 18 52 4.8 11.3 0.00 0.00 0.00 39 1012.1
20260504194913 18 20 1.6 12.9 0.00 0.00 0.00 37 1012.4
20260504194409 18 28 6.4 16.1 0.00 0.00 0.00 38 1012.1
20260504193905 18 98 11.3 25.7 0.00 0.00 0.00 38 1012.1
20260504193402 18 99 6.4 24.1 0.00 0.00 0.00 39 1012.4
20260504192901 18 342 3.2 19.3 0.00 0.00 0.00 40 1012.4
20260504192358 18 37 0.0 12.9 0.00 0.00 0.00 39 1012.1
20260504191856 18 4 6.4 16.1 0.00 0.00 0.00 40 1012.6
20260504191354 18 106 3.2 9.7 0.00 0.00 0.00 42 1012.7
20260504190849 17 82 4.8 14.5 0.00 0.00 0.00 40 1012.5
20260504190345 17 41 14.5 14.5 0.00 0.00 0.00 41 1012.6
20260504185842 18 42 9.7 11.3 0.00 0.00 0.00 39 1012.9
20260504185339 17 109 4.8 17.7 0.00 0.00 0.00 40 1013.0
20260504184835 17 10 4.8 17.7 0.00 0.00 0.00 40 1012.8
20260504184331 17 157 9.7 24.1 0.00 0.00 0.00 40 1012.7
20260504183827 17 82 4.8 20.9 0.00 0.00 0.00 39 1013.1
20260504183325 17 75 4.8 16.1 0.00 0.00 0.00 40 1012.9
20260504182822 17 115 16.1 16.1 0.00 0.00 0.00 39 1013.0
20260504182319 17 87 4.8 25.7 0.00 0.00 0.00 40 1012.9
20260504181816 17 69 14.5 29.0 0.00 0.00 0.00 40 1013.1
20260504181314 16 41 6.4 20.9 0.00 0.00 0.00 40 1013.0
20260504180813 17 62 8.0 16.1 0.00 0.00 0.00 40 1013.0
20260504180311 17 104 16.1 35.4 0.00 0.00 0.00 39 1013.1
20260504175808 16 100 14.5 22.5 0.00 0.00 0.00 41 1013.1
20260504175305 16 53 9.7 35.4 0.00 0.00 0.00 40 1013.1
20260504174803 17 82 8.0 16.1 0.00 0.00 0.00 40 1013.0
20260504174300 16 108 11.3 16.1 0.00 0.00 0.00 41 1013.2
20260504173757 16 82 11.3 25.7 0.00 0.00 0.00 41 1013.2
20260504173254 16 104 8.0 27.4 0.00 0.00 0.00 40 1013.5
20260504172750 16 56 4.8 22.5 0.00 0.00 0.00 41 1013.4
20260504172247 16 62 9.7 24.1 0.00 0.00 0.00 39 1013.4
20260504171743 16 14 11.3 22.5 0.00 0.00 0.00 42 1013.5
20260504171241 15 78 8.0 24.1 0.00 0.00 0.00 41 1013.4
20260504170738 15 84 9.7 22.5 0.00 0.00 0.00 40 1013.7
20260504170235 15 110 9.7 16.1 0.00 0.00 0.00 41 1013.4
20260504160153 13 90 14.5 53.1 0.00 0.00 0.00 43 1013.8
20260504151121 12 111 16.1 29.0 0.00 0.00 0.00 43 1013.9
20260504150618 13 79 25.7 38.6 0.00 0.00 0.00 43 1014.0
20260504150115 12 60 8.0 38.6 0.00 0.00 0.00 43 1013.7
20260504141044 12 136 17.7 40.2 0.00 0.00 0.00 44 1013.4
20260504140540 12 115 20.9 37.0 0.00 0.00 0.00 44 1013.2
20260504130505 11 105 1.6 33.8 0.00 0.00 0.00 46 1012.7
20260504110352 12 113 25.7 37.0 0.00 0.00 0.00 49 1011.8